Time,TemperatureF,DewpointF,PressureIn,WindDirection,WindDirectionDegrees,WindSpeedMPH,WindSpeedGustMPH,Humidity,HourlyPrecipIn,Conditions,Clouds,dailyrainin,SoftwareType,DateUTC
2013-07-13 00:00:00,67.4,63.7,29.92,NW,307,0.0,1.0,88,0.00,,---,0.00,VWS V14.00,2013-07-13 04:00:00,
2013-07-13 00:01:00,67.4,63.7,29.92,NE,41,0.0,1.0,88,0.00,,---,0.00,VWS V14.00,2013-07-13 04:01:00,
2013-07-13 00:02:00,67.3,63.6,29.92,NE,41,0.0,1.0,88,0.00,,---,0.00,VWS V14.00,2013-07-13 04:02:00,
2013-07-13 00:07:00,67.1,63.4,29.92,NE,41,0.0,1.0,88,0.00,,---,0.00,VWS V14.00,2013-07-13 04:07:00,
2013-07-13 00:12:00,66.9,63.2,29.92,NE,41,0.0,0.0,88,0.00,,---,0.00,VWS V14.00,2013-07-13 04:12:00,
2013-07-13 00:17:00,66.7,63.4,29.92,NE,41,0.0,0.0,89,0.00,,---,0.00,VWS V14.00,2013-07-13 04:17:00,
2013-07-13 00:22:00,66.6,63.3,29.92,NE,41,0.0,0.0,89,0.00,,---,0.00,VWS V14.00,2013-07-13 04:22:00,
2013-07-13 00:27:00,66.5,63.2,29.92,NE,41,0.0,1.0,89,0.00,,---,0.00,VWS V14.00,2013-07-13 04:27:00,
2013-07-13 00:32:00,66.3,63.3,29.92,NE,41,0.0,1.0,90,0.00,,---,0.00,VWS V14.00,2013-07-13 04:32:00,
2013-07-13 00:37:00,66.3,63.3,29.92,NE,41,0.0,1.0,90,0.00,,---,0.00,VWS V14.00,2013-07-13 04:37:00,
2013-07-13 00:42:00,66.1,63.1,29.93,NE,41,0.0,0.0,90,0.00,,---,0.00,VWS V14.00,2013-07-13 04:42:00,
2013-07-13 00:47:00,66.0,63.3,29.93,NE,41,0.0,0.0,91,0.00,,---,0.00,VWS V14.00,2013-07-13 04:47:00,
2013-07-13 00:52:00,65.9,63.2,29.93,NE,41,0.0,0.0,91,0.00,,---,0.00,VWS V14.00,2013-07-13 04:52:00,
2013-07-13 00:57:00,65.8,63.1,29.94,NE,41,0.0,0.0,91,0.00,,---,0.00,VWS V14.00,2013-07-13 04:57:00,
2013-07-13 01:02:00,65.6,62.9,29.93,NE,41,0.0,0.0,91,0.00,,---,0.00,VWS V14.00,2013-07-13 05:02:00,
2013-07-13 01:07:00,65.4,62.7,29.94,NE,41,0.0,0.0,91,0.00,,---,0.00,VWS V14.00,2013-07-13 05:07:00,
2013-07-13 01:12:00,65.3,62.6,29.94,NE,41,0.0,1.0,91,0.00,,---,0.00,VWS V14.00,2013-07-13 05:12:00,
2013-07-13 01:17:00,65.2,62.8,29.94,West,273,3.0,3.0,92,0.00,,---,0.00,VWS V14.00,2013-07-13 05:17:00,
2013-07-13 01:22:00,65.1,62.7,29.94,West,281,0.0,3.0,92,0.00,,---,0.00,VWS V14.00,2013-07-13 05:22:00,
2013-07-13 01:27:00,65.0,62.6,29.94,NNW,346,0.0,4.0,92,0.00,,---,0.00,VWS V14.00,2013-07-13 05:27:00,
2013-07-13 01:32:00,65.0,62.6,29.94,NW,311,0.0,4.0,92,0.00,,---,0.00,VWS V14.00,2013-07-13 05:32:00,
2013-07-13 01:37:00,65.0,62.6,29.94,SSW,211,0.0,4.0,92,0.00,,---,0.00,VWS V14.00,2013-07-13 05:37:00,
2013-07-13 01:42:00,65.0,62.9,29.95,SSW,210,0.0,1.0,93,0.00,,---,0.00,VWS V14.00,2013-07-13 05:42:00,
2013-07-13 01:47:00,65.0,62.9,29.94,SSW,210,0.0,1.0,93,0.00,,---,0.00,VWS V14.00,2013-07-13 05:47:00,
2013-07-13 01:52:00,65.0,62.9,29.94,SSW,210,0.0,1.0,93,0.00,,---,0.00,VWS V14.00,2013-07-13 05:52:00,
2013-07-13 01:57:00,65.0,62.9,29.94,NW,307,2.0,2.0,93,0.00,,---,0.00,VWS V14.00,2013-07-13 05:57:00,
2013-07-13 02:02:00,65.0,62.9,29.94,NW,307,0.0,3.0,93,0.00,,---,0.00,VWS V14.00,2013-07-13 06:02:00,
2013-07-13 02:07:00,65.1,63.0,29.94,NW,307,0.0,3.0,93,0.00,,---,0.00,VWS V14.00,2013-07-13 06:07:00,
2013-07-13 02:12:00,65.1,63.0,29.94,NW,307,0.0,0.0,93,0.00,,---,0.00,VWS V14.00,2013-07-13 06:12:00,
2013-07-13 02:17:00,65.0,62.9,29.93,NW,307,0.0,0.0,93,0.00,,---,0.00,VWS V14.00,2013-07-13 06:17:00,
2013-07-13 02:22:00,65.0,62.9,29.93,NW,307,0.0,0.0,93,0.00,,---,0.00,VWS V14.00,2013-07-13 06:22:00,
2013-07-13 02:27:00,64.9,62.8,29.93,NW,307,0.0,1.0,93,0.00,,---,0.00,VWS V14.00,2013-07-13 06:27:00,
2013-07-13 02:32:00,64.9,62.8,29.93,NW,307,0.0,1.0,93,0.00,,---,0.00,VWS V14.00,2013-07-13 06:32:00,
2013-07-13 02:37:00,64.8,62.7,29.93,NW,307,0.0,1.0,93,0.00,,---,0.00,VWS V14.00,2013-07-13 06:37:00,
2013-07-13 02:42:00,64.8,62.7,29.93,NW,307,0.0,0.0,93,0.00,,---,0.00,VWS V14.00,2013-07-13 06:42:00,
2013-07-13 02:47:00,64.6,62.5,29.92,NW,307,0.0,0.0,93,0.00,,---,0.00,VWS V14.00,2013-07-13 06:47:00,
2013-07-13 02:52:00,64.5,62.4,29.92,NW,307,0.0,0.0,93,0.00,,---,0.00,VWS V14.00,2013-07-13 06:52:00,
2013-07-13 02:57:00,64.4,62.3,29.93,NW,307,0.0,0.0,93,0.00,,---,0.00,VWS V14.00,2013-07-13 06:57:00,
2013-07-13 03:02:00,64.2,62.1,29.93,NW,307,0.0,1.0,93,0.00,,---,0.00,VWS V14.00,2013-07-13 07:02:00,
2013-07-13 03:07:00,64.1,62.0,29.92,NW,307,0.0,1.0,93,0.00,,---,0.00,VWS V14.00,2013-07-13 07:07:00,
2013-07-13 03:12:00,64.0,62.2,29.92,NW,307,0.0,1.0,94,0.00,,---,0.00,VWS V14.00,2013-07-13 07:12:00,
2013-07-13 03:17:00,63.9,62.1,29.93,NW,307,0.0,1.0,94,0.00,,---,0.00,VWS V14.00,2013-07-13 07:17:00,
2013-07-13 03:22:00,63.8,62.0,29.93,NW,307,0.0,1.0,94,0.00,,---,0.00,VWS V14.00,2013-07-13 07:22:00,
2013-07-13 03:27:00,63.7,62.0,29.93,NW,307,0.0,1.0,94,0.00,,---,0.00,VWS V14.00,2013-07-13 07:27:00,
2013-07-13 03:32:00,63.6,61.8,29.92,NW,307,0.0,1.0,94,0.00,,---,0.00,VWS V14.00,2013-07-13 07:32:00,
2013-07-13 03:37:00,63.4,61.7,29.93,NW,307,0.0,1.0,94,0.00,,---,0.00,VWS V14.00,2013-07-13 07:37:00,
2013-07-13 03:42:00,63.3,61.5,29.93,NW,307,0.0,0.0,94,0.00,,---,0.00,VWS V14.00,2013-07-13 07:42:00,
2013-07-13 03:47:00,63.2,61.5,29.93,NW,307,0.0,1.0,94,0.00,,---,0.00,VWS V14.00,2013-07-13 07:47:00,
2013-07-13 03:52:00,63.2,61.5,29.93,NW,307,0.0,1.0,94,0.00,,---,0.00,VWS V14.00,2013-07-13 07:52:00,
2013-07-13 03:57:00,63.1,61.7,29.93,NW,307,0.0,1.0,95,0.00,,---,0.00,VWS V14.00,2013-07-13 07:57:00,
2013-07-13 04:02:00,63.1,61.7,29.93,NW,307,0.0,1.0,95,0.00,,---,0.00,VWS V14.00,2013-07-13 08:02:00,
2013-07-13 04:07:00,63.1,61.7,29.93,NW,307,0.0,1.0,95,0.00,,---,0.00,VWS V14.00,2013-07-13 08:07:00,
2013-07-13 04:12:00,63.1,61.7,29.93,NW,307,0.0,1.0,95,0.00,,---,0.00,VWS V14.00,2013-07-13 08:12:00,
2013-07-13 04:17:00,63.1,61.7,29.93,NW,307,0.0,1.0,95,0.00,,---,0.00,VWS V14.00,2013-07-13 08:17:00,
2013-07-13 04:22:00,63.2,61.8,29.93,NW,307,0.0,1.0,95,0.00,,---,0.00,VWS V14.00,2013-07-13 08:22:00,
2013-07-13 04:27:00,63.2,61.8,29.93,SSW,213,0.0,3.0,95,0.00,,---,0.00,VWS V14.00,2013-07-13 08:27:00,
2013-07-13 04:32:00,63.2,61.8,29.92,WNW,292,0.0,3.0,95,0.00,,---,0.00,VWS V14.00,2013-07-13 08:32:00,
2013-07-13 04:37:00,63.3,61.8,29.92,NW,321,0.0,3.0,95,0.00,,---,0.00,VWS V14.00,2013-07-13 08:37:00,
2013-07-13 04:42:00,63.3,61.8,29.92,NW,321,0.0,1.0,95,0.00,,---,0.00,VWS V14.00,2013-07-13 08:42:00,
2013-07-13 04:47:00,63.4,62.0,29.92,NW,321,0.0,1.0,95,0.00,,---,0.00,VWS V14.00,2013-07-13 08:47:00,
2013-07-13 04:52:00,63.5,62.0,29.93,NW,321,0.0,1.0,95,0.00,,---,0.00,VWS V14.00,2013-07-13 08:52:00,
2013-07-13 04:57:00,63.6,62.2,29.93,NW,321,0.0,1.0,95,0.00,,---,0.00,VWS V14.00,2013-07-13 08:57:00,
2013-07-13 05:02:00,63.5,62.0,29.93,WSW,253,0.0,2.0,95,0.00,,---,0.00,VWS V14.00,2013-07-13 09:02:00,
2013-07-13 05:07:00,63.6,62.2,29.93,East,88,0.0,3.0,95,0.00,,---,0.00,VWS V14.00,2013-07-13 09:07:00,
2013-07-13 05:12:00,63.6,61.8,29.94,East,89,0.0,1.0,94,0.00,,---,0.00,VWS V14.00,2013-07-13 09:12:00,
2013-07-13 05:17:00,63.6,61.8,29.94,East,88,0.0,1.0,94,0.00,,---,0.00,VWS V14.00,2013-07-13 09:17:00,
2013-07-13 05:22:00,63.7,62.0,29.94,East,88,0.0,1.0,94,0.00,,---,0.00,VWS V14.00,2013-07-13 09:22:00,
2013-07-13 05:27:00,63.7,62.0,29.94,East,88,0.0,1.0,94,0.00,,---,0.00,VWS V14.00,2013-07-13 09:27:00,
2013-07-13 05:32:00,63.8,62.0,29.94,SW,226,0.0,1.0,94,0.00,,---,0.00,VWS V14.00,2013-07-13 09:32:00,
2013-07-13 05:37:00,63.8,62.0,29.93,SW,226,0.0,2.0,94,0.00,,---,0.00,VWS V14.00,2013-07-13 09:37:00,
2013-07-13 05:42:00,63.8,62.0,29.94,SW,226,0.0,0.0,94,0.00,,---,0.00,VWS V14.00,2013-07-13 09:42:00,
2013-07-13 05:47:00,63.8,62.0,29.94,SW,226,0.0,0.0,94,0.00,,---,0.00,VWS V14.00,2013-07-13 09:47:00,
2013-07-13 05:52:00,63.7,62.0,29.94,West,267,0.0,5.0,94,0.00,,---,0.00,VWS V14.00,2013-07-13 09:52:00,
2013-07-13 05:57:00,63.7,62.0,29.94,WSW,250,3.0,5.0,94,0.00,,---,0.00,VWS V14.00,2013-07-13 09:57:00,
2013-07-13 06:02:00,63.8,62.0,29.94,WSW,256,0.0,5.0,94,0.00,,---,0.00,VWS V14.00,2013-07-13 10:02:00,
2013-07-13 06:07:00,63.9,62.1,29.95,SW,236,0.0,5.0,94,0.00,,---,0.00,VWS V14.00,2013-07-13 10:07:00,
2013-07-13 06:12:00,63.9,62.1,29.96,SW,236,0.0,1.0,94,0.00,,---,0.00,VWS V14.00,2013-07-13 10:12:00,
2013-07-13 06:17:00,64.0,62.2,29.96,SW,236,0.0,1.0,94,0.00,,---,0.00,VWS V14.00,2013-07-13 10:17:00,
2013-07-13 06:22:00,64.1,62.3,29.96,SW,236,0.0,1.0,94,0.00,,---,0.00,VWS V14.00,2013-07-13 10:22:00,
2013-07-13 06:27:00,64.2,62.4,29.97,SW,236,0.0,1.0,94,0.00,,---,0.00,VWS V14.00,2013-07-13 10:27:00,
2013-07-13 06:32:00,64.2,62.4,29.98,SW,236,0.0,1.0,94,0.00,,---,0.00,VWS V14.00,2013-07-13 10:32:00,
2013-07-13 06:37:00,64.2,62.4,29.98,SW,236,0.0,1.0,94,0.00,,---,0.00,VWS V14.00,2013-07-13 10:37:00,
2013-07-13 06:42:00,64.1,62.3,29.97,SW,236,0.0,0.0,94,0.00,,---,0.00,VWS V14.00,2013-07-13 10:42:00,
2013-07-13 06:47:00,64.1,62.3,29.98,SW,236,0.0,0.0,94,0.00,,---,0.00,VWS V14.00,2013-07-13 10:47:00,
2013-07-13 06:52:00,64.1,62.3,29.98,ENE,67,0.0,0.0,94,0.00,,---,0.00,VWS V14.00,2013-07-13 10:52:00,
2013-07-13 06:57:00,64.0,62.2,29.98,ENE,67,0.0,0.0,94,0.00,,---,0.00,VWS V14.00,2013-07-13 10:57:00,
2013-07-13 07:02:00,63.9,62.1,29.99,North,10,0.0,0.0,94,0.00,,---,0.00,VWS V14.00,2013-07-13 11:02:00,
2013-07-13 07:07:00,63.8,62.0,29.99,West,281,0.0,0.0,94,0.00,,---,0.00,VWS V14.00,2013-07-13 11:07:00,
2013-07-13 07:12:00,63.8,62.0,30.00,WNW,282,0.0,0.0,94,0.00,,---,0.00,VWS V14.00,2013-07-13 11:12:00,
2013-07-13 07:17:00,63.8,62.3,29.99,West,281,0.0,0.0,95,0.00,,---,0.00,VWS V14.00,2013-07-13 11:17:00,
2013-07-13 07:22:00,63.8,62.3,30.00,WNW,282,0.0,0.0,95,0.00,,---,0.00,VWS V14.00,2013-07-13 11:22:00,
2013-07-13 07:27:00,63.8,62.3,30.00,West,281,0.0,0.0,95,0.00,,---,0.00,VWS V14.00,2013-07-13 11:27:00,
2013-07-13 07:32:00,63.8,62.3,30.00,WNW,282,0.0,1.0,95,0.00,,---,0.00,VWS V14.00,2013-07-13 11:32:00,
2013-07-13 07:37:00,63.8,62.3,30.00,WNW,282,0.0,1.0,95,0.00,,---,0.00,VWS V14.00,2013-07-13 11:37:00,
2013-07-13 07:42:00,63.8,62.3,30.00,West,281,0.0,1.0,95,0.00,,---,0.00,VWS V14.00,2013-07-13 11:42:00,
2013-07-13 07:47:00,63.9,62.7,30.00,WNW,282,0.0,1.0,96,0.00,,---,0.00,VWS V14.00,2013-07-13 11:47:00,
2013-07-13 07:52:00,63.9,62.7,30.00,South,173,0.0,1.0,96,0.00,,---,0.00,VWS V14.00,2013-07-13 11:52:00,
2013-07-13 07:57:00,64.0,62.8,30.00,South,173,0.0,1.0,96,0.00,,---,0.00,VWS V14.00,2013-07-13 11:57:00,
2013-07-13 08:02:00,64.1,62.6,30.00,ESE,122,0.0,3.0,95,0.00,,---,0.00,VWS V14.00,2013-07-13 12:02:00,
2013-07-13 08:07:00,64.2,62.7,30.00,SE,125,0.0,3.0,95,0.00,,---,0.00,VWS V14.00,2013-07-13 12:07:00,
2013-07-13 08:12:00,64.4,62.9,30.01,SW,217,0.0,0.0,95,0.00,,---,0.00,VWS V14.00,2013-07-13 12:12:00,
2013-07-13 08:17:00,64.6,62.8,30.01,SSW,213,0.0,2.0,94,0.00,,---,0.00,VWS V14.00,2013-07-13 12:17:00,
2013-07-13 08:22:00,64.9,63.4,30.01,SSW,213,0.0,2.0,95,0.00,,---,0.00,VWS V14.00,2013-07-13 12:22:00,
2013-07-13 08:27:00,65.1,63.3,30.01,SW,219,0.0,2.0,94,0.00,,---,0.00,VWS V14.00,2013-07-13 12:27:00,
2013-07-13 08:32:00,65.3,63.2,30.01,WSW,250,0.0,3.0,93,0.00,,---,0.00,VWS V14.00,2013-07-13 12:32:00,
2013-07-13 08:37:00,65.8,63.7,30.01,NW,324,0.0,3.0,93,0.00,,---,0.00,VWS V14.00,2013-07-13 12:37:00,
2013-07-13 08:42:00,66.3,64.2,30.01,SE,140,0.0,1.0,93,0.00,,---,0.00,VWS V14.00,2013-07-13 12:42:00,
2013-07-13 08:47:00,66.6,63.6,30.01,SE,140,1.0,3.0,90,0.00,,---,0.00,VWS V14.00,2013-07-13 12:47:00,
2013-07-13 08:52:00,67.0,64.3,30.01,South,183,0.0,3.0,91,0.00,,---,0.00,VWS V14.00,2013-07-13 12:52:00,
2013-07-13 08:57:00,67.5,64.5,30.01,NNE,30,4.0,4.0,90,0.00,,---,0.00,VWS V14.00,2013-07-13 12:57:00,
2013-07-13 09:02:00,67.8,64.8,30.01,SSW,194,1.0,4.0,90,0.00,,---,0.00,VWS V14.00,2013-07-13 13:02:00,
2013-07-13 09:07:00,68.0,64.6,30.01,WNW,296,0.0,4.0,89,0.00,,---,0.00,VWS V14.00,2013-07-13 13:07:00,
2013-07-13 09:12:00,68.4,64.7,30.01,SW,229,1.0,7.0,88,0.00,,---,0.00,VWS V14.00,2013-07-13 13:12:00,
2013-07-13 09:17:00,68.8,65.1,30.01,West,269,0.0,9.0,88,0.00,,---,0.00,VWS V14.00,2013-07-13 13:17:00,
2013-07-13 09:22:00,69.4,65.7,30.01,East,101,0.0,9.0,88,0.00,,---,0.00,VWS V14.00,2013-07-13 13:22:00,
2013-07-13 09:27:00,70.0,65.6,30.01,WNW,295,0.0,9.0,86,0.00,,---,0.00,VWS V14.00,2013-07-13 13:27:00,
2013-07-13 09:32:00,70.6,66.2,30.01,WSW,248,0.0,9.0,86,0.00,,---,0.00,VWS V14.00,2013-07-13 13:32:00,
2013-07-13 09:37:00,71.3,65.9,30.01,NW,306,0.0,9.0,83,0.00,,---,0.00,VWS V14.00,2013-07-13 13:37:00,
2013-07-13 09:42:00,71.7,65.9,30.00,SSE,150,1.0,3.0,82,0.00,,---,0.00,VWS V14.00,2013-07-13 13:42:00,
2013-07-13 09:47:00,71.8,66.0,30.00,SSE,155,0.0,6.0,82,0.00,,---,0.00,VWS V14.00,2013-07-13 13:47:00,
2013-07-13 09:52:00,71.9,66.1,30.00,SW,232,0.0,6.0,82,0.00,,---,0.00,VWS V14.00,2013-07-13 13:52:00,
2013-07-13 09:57:00,72.1,66.3,30.00,West,263,0.0,6.0,82,0.00,,---,0.00,VWS V14.00,2013-07-13 13:57:00,
2013-07-13 10:02:00,72.1,66.3,30.01,West,263,0.0,6.0,82,0.00,,---,0.00,VWS V14.00,2013-07-13 14:02:00,
2013-07-13 10:07:00,72.3,66.5,30.01,South,190,0.0,6.0,82,0.00,,---,0.00,VWS V14.00,2013-07-13 14:07:00,
2013-07-13 10:12:00,72.5,66.0,30.00,WNW,300,0.0,5.0,80,0.00,,---,0.00,VWS V14.00,2013-07-13 14:12:00,
2013-07-13 10:17:00,72.6,66.1,30.00,SSW,197,0.0,5.0,80,0.00,,---,0.00,VWS V14.00,2013-07-13 14:17:00,
2013-07-13 10:22:00,72.5,65.6,30.00,West,281,4.0,5.0,79,0.00,,---,0.00,VWS V14.00,2013-07-13 14:22:00,
2013-07-13 10:27:00,72.1,65.6,30.01,West,267,0.0,6.0,80,0.00,,---,0.00,VWS V14.00,2013-07-13 14:27:00,
2013-07-13 10:32:00,71.9,65.8,30.01,West,259,2.0,6.0,81,0.00,,---,0.00,VWS V14.00,2013-07-13 14:32:00,
2013-07-13 10:36:00,71.9,65.8,30.01,West,259,0.0,6.0,81,0.00,,---,0.00,VWS V14.00,2013-07-13 14:36:00,
2013-07-13 10:41:00,72.2,66.8,30.01,West,259,0.0,1.0,83,0.00,,---,0.00,VWS V14.00,2013-07-13 14:41:00,
2013-07-13 10:42:00,72.2,66.8,30.01,West,259,0.0,1.0,83,0.00,,---,0.00,VWS V14.00,2013-07-13 14:42:00,
2013-07-13 10:47:00,72.7,66.9,30.00,West,259,0.0,1.0,82,0.00,,---,0.00,VWS V14.00,2013-07-13 14:47:00,
2013-07-13 10:52:00,73.2,67.4,30.01,SSW,211,0.0,5.0,82,0.00,,---,0.00,VWS V14.00,2013-07-13 14:52:00,
2013-07-13 10:57:00,73.7,67.5,30.01,WSW,237,0.0,5.0,81,0.00,,---,0.00,VWS V14.00,2013-07-13 14:57:00,
2013-07-13 11:02:00,73.9,67.0,30.01,WNW,294,0.0,7.0,79,0.00,,---,0.00,VWS V14.00,2013-07-13 15:02:00,
2013-07-13 11:07:00,73.7,66.4,30.01,South,187,0.0,7.0,78,0.00,,---,0.00,VWS V14.00,2013-07-13 15:07:00,
2013-07-13 11:12:00,73.6,67.1,30.02,WNW,303,0.0,6.0,80,0.00,,---,0.00,VWS V14.00,2013-07-13 15:12:00,
2013-07-13 11:17:00,73.4,65.4,30.03,East,94,5.0,9.0,76,0.00,,---,0.00,VWS V14.00,2013-07-13 15:17:00,
2013-07-13 11:22:00,72.8,65.2,30.03,SSW,209,0.0,9.0,77,0.00,,---,0.00,VWS V14.00,2013-07-13 15:22:00,
2013-07-13 11:26:00,72.3,65.1,30.03,SW,218,0.0,9.0,78,0.00,,---,0.00,VWS V14.00,2013-07-13 15:26:00,
2013-07-13 11:31:00,72.1,65.6,30.03,SW,219,0.0,9.0,80,0.00,,---,0.00,VWS V14.00,2013-07-13 15:31:00,
2013-07-13 11:36:00,71.9,65.4,30.03,SSW,192,0.0,9.0,80,0.00,,---,0.00,VWS V14.00,2013-07-13 15:36:00,
2013-07-13 11:41:00,71.8,66.0,30.04,SW,229,0.0,2.0,82,0.00,,---,0.00,VWS V14.00,2013-07-13 15:41:00,
2013-07-13 11:46:00,71.9,65.8,30.04,SW,233,2.0,3.0,81,0.00,,---,0.00,VWS V14.00,2013-07-13 15:46:00,
2013-07-13 11:51:00,72.3,67.2,30.04,SW,233,0.0,3.0,84,0.00,,---,0.00,VWS V14.00,2013-07-13 15:51:00,
2013-07-13 11:56:00,72.5,66.0,30.03,ENE,71,0.0,6.0,80,0.00,,---,0.00,VWS V14.00,2013-07-13 15:56:00,
2013-07-13 12:01:00,72.7,65.8,30.02,SSE,165,0.0,6.0,79,0.00,,---,0.00,VWS V14.00,2013-07-13 16:01:00,
2013-07-13 12:06:00,72.9,66.4,30.03,South,191,0.0,6.0,80,0.00,,---,0.00,VWS V14.00,2013-07-13 16:06:00,
2013-07-13 12:11:00,73.0,66.5,30.04,WSW,237,0.0,6.0,80,0.00,,---,0.00,VWS V14.00,2013-07-13 16:11:00,
2013-07-13 12:16:00,73.4,67.9,30.03,NNW,347,0.0,9.0,83,0.00,,---,0.00,VWS V14.00,2013-07-13 16:16:00,
2013-07-13 12:21:00,73.7,67.2,30.04,WNW,297,0.0,9.0,80,0.00,,---,0.00,VWS V14.00,2013-07-13 16:21:00,
2013-07-13 12:26:00,74.0,66.0,30.04,WSW,238,4.0,9.0,76,0.00,,---,0.00,VWS V14.00,2013-07-13 16:26:00,
2013-07-13 12:31:00,74.0,66.0,30.04,WSW,244,0.0,9.0,76,0.00,,---,0.00,VWS V14.00,2013-07-13 16:31:00,
2013-07-13 12:36:00,74.4,67.5,30.04,WSW,244,0.0,9.0,79,0.00,,---,0.00,VWS V14.00,2013-07-13 16:36:00,
2013-07-13 12:41:00,75.0,66.6,30.03,West,272,1.0,5.0,75,0.00,,---,0.00,VWS V14.00,2013-07-13 16:41:00,
2013-07-13 12:46:00,75.5,68.2,30.03,SSW,213,0.0,5.0,78,0.00,,---,0.00,VWS V14.00,2013-07-13 16:46:00,
2013-07-13 12:51:00,76.2,68.8,30.03,WNW,283,5.0,7.0,78,0.00,,---,0.00,VWS V14.00,2013-07-13 16:51:00,
2013-07-13 12:56:00,76.6,67.7,30.02,SSW,205,0.0,7.0,74,0.00,,---,0.00,VWS V14.00,2013-07-13 16:56:00,
2013-07-13 13:01:00,76.6,66.5,30.02,WSW,252,0.0,7.0,71,0.00,,---,0.00,VWS V14.00,2013-07-13 17:01:00,
2013-07-13 13:06:00,76.5,67.6,30.02,WSW,257,0.0,7.0,74,0.00,,---,0.00,VWS V14.00,2013-07-13 17:06:00,
2013-07-13 13:11:00,76.9,68.8,30.02,SSW,202,0.0,2.0,76,0.00,,---,0.00,VWS V14.00,2013-07-13 17:11:00,
2013-07-13 13:16:00,77.3,67.6,30.02,SSW,211,0.0,4.0,72,0.00,,---,0.00,VWS V14.00,2013-07-13 17:16:00,
2013-07-13 13:21:00,77.6,67.9,30.02,NNE,28,0.0,6.0,72,0.00,,---,0.00,VWS V14.00,2013-07-13 17:21:00,
2013-07-13 13:26:00,78.2,67.6,30.02,WNW,292,0.0,11.0,70,0.00,,---,0.00,VWS V14.00,2013-07-13 17:26:00,
2013-07-13 13:31:00,78.4,68.2,30.02,SE,134,0.0,11.0,71,0.00,,---,0.00,VWS V14.00,2013-07-13 17:31:00,
2013-07-13 13:36:00,78.3,66.4,30.02,NW,315,0.0,11.0,67,0.00,,---,0.00,VWS V14.00,2013-07-13 17:36:00,
2013-07-13 13:41:00,78.0,66.6,30.02,NE,46,0.0,11.0,68,0.00,,---,0.00,VWS V14.00,2013-07-13 17:41:00,
2013-07-13 13:46:00,77.8,67.7,30.02,SE,130,4.0,11.0,71,0.00,,---,0.00,VWS V14.00,2013-07-13 17:46:00,
2013-07-13 13:51:00,77.9,67.3,30.02,North,349,0.0,11.0,70,0.00,,---,0.00,VWS V14.00,2013-07-13 17:51:00,
2013-07-13 13:56:00,78.4,68.6,30.01,NE,34,0.0,11.0,72,0.00,,---,0.00,VWS V14.00,2013-07-13 17:56:00,
2013-07-13 14:01:00,78.3,68.1,30.02,NW,317,0.0,11.0,71,0.00,,---,0.00,VWS V14.00,2013-07-13 18:01:00,
2013-07-13 14:06:00,78.1,67.5,30.02,SE,136,0.0,11.0,70,0.00,,---,0.00,VWS V14.00,2013-07-13 18:06:00,
2013-07-13 14:11:00,78.2,68.4,30.02,SSE,163,0.0,4.0,72,0.00,,---,0.00,VWS V14.00,2013-07-13 18:11:00,
2013-07-13 14:16:00,78.2,66.8,30.02,SE,141,0.0,4.0,68,0.00,,---,0.00,VWS V14.00,2013-07-13 18:16:00,
2013-07-13 14:21:00,78.1,68.8,30.01,South,181,0.0,4.0,73,0.00,,---,0.00,VWS V14.00,2013-07-13 18:21:00,
2013-07-13 14:26:00,78.3,69.3,30.01,SSE,161,0.0,10.0,74,0.00,,---,0.00,VWS V14.00,2013-07-13 18:26:00,
2013-07-13 14:31:00,78.7,68.5,30.02,WSW,257,3.0,10.0,71,0.00,,---,0.00,VWS V14.00,2013-07-13 18:31:00,
2013-07-13 14:36:00,78.7,67.7,30.01,NW,320,2.0,10.0,69,0.00,,---,0.00,VWS V14.00,2013-07-13 18:36:00,
2013-07-13 14:41:00,78.7,67.3,30.01,NW,321,0.0,10.0,68,0.00,,---,0.00,VWS V14.00,2013-07-13 18:41:00,
2013-07-13 14:46:00,78.7,67.7,30.01,South,185,0.0,10.0,69,0.00,,---,0.00,VWS V14.00,2013-07-13 18:46:00,
2013-07-13 14:51:00,79.1,68.9,30.00,South,175,2.0,10.0,71,0.00,,---,0.00,VWS V14.00,2013-07-13 18:51:00,
2013-07-13 14:56:00,79.2,66.9,30.01,SE,140,3.0,10.0,66,0.00,,---,0.00,VWS V14.00,2013-07-13 18:56:00,
2013-07-13 15:01:00,78.8,66.5,30.01,ESE,120,0.0,10.0,66,0.00,,---,0.00,VWS V14.00,2013-07-13 19:01:00,
2013-07-13 15:06:00,78.6,67.2,30.01,ESE,110,0.0,10.0,68,0.00,,---,0.00,VWS V14.00,2013-07-13 19:06:00,
2013-07-13 15:11:00,78.7,68.9,30.00,West,265,4.0,9.0,72,0.00,,---,0.00,VWS V14.00,2013-07-13 19:11:00,
2013-07-13 15:16:00,78.7,67.7,30.00,SSW,194,0.0,9.0,69,0.00,,---,0.00,VWS V14.00,2013-07-13 19:16:00,
2013-07-13 15:21:00,78.7,66.8,30.00,West,266,2.0,9.0,67,0.00,,---,0.00,VWS V14.00,2013-07-13 19:21:00,
2013-07-13 15:26:00,78.5,66.2,30.01,SE,130,0.0,9.0,66,0.00,,---,0.00,VWS V14.00,2013-07-13 19:26:00,
2013-07-13 15:31:00,78.3,66.4,30.01,South,171,0.0,9.0,67,0.00,,---,0.00,VWS V14.00,2013-07-13 19:31:00,
2013-07-13 15:36:00,78.2,66.8,30.02,NW,310,5.0,9.0,68,0.00,,---,0.00,VWS V14.00,2013-07-13 19:36:00,
2013-07-13 15:41:00,78.0,66.6,30.02,SSE,167,1.0,7.0,68,0.00,,---,0.00,VWS V14.00,2013-07-13 19:41:00,
2013-07-13 15:46:00,77.7,67.1,30.02,NW,326,5.0,11.0,70,0.00,,---,0.00,VWS V14.00,2013-07-13 19:46:00,
2013-07-13 15:51:00,77.6,67.1,30.01,NW,322,4.0,11.0,70,0.00,,---,0.00,VWS V14.00,2013-07-13 19:51:00,
2013-07-13 15:56:00,77.7,66.7,30.01,SSW,211,3.0,11.0,69,0.00,,---,0.00,VWS V14.00,2013-07-13 19:56:00,
2013-07-13 16:01:00,77.7,67.6,30.01,SSW,208,0.0,11.0,71,0.00,,---,0.00,VWS V14.00,2013-07-13 20:01:00,
2013-07-13 16:06:00,77.3,66.8,30.01,WSW,241,1.0,11.0,70,0.00,,---,0.00,VWS V14.00,2013-07-13 20:06:00,
2013-07-13 16:11:00,76.9,66.8,30.01,WNW,294,0.0,5.0,71,0.00,,---,0.00,VWS V14.00,2013-07-13 20:11:00,
2013-07-13 16:16:00,76.6,66.9,30.01,SW,227,0.0,5.0,72,0.00,,---,0.00,VWS V14.00,2013-07-13 20:16:00,
2013-07-13 16:21:00,76.4,66.7,30.01,South,180,0.0,5.0,72,0.00,,---,0.00,VWS V14.00,2013-07-13 20:21:00,
2013-07-13 16:26:00,76.1,66.4,30.01,North,5,0.0,10.0,72,0.00,,---,0.00,VWS V14.00,2013-07-13 20:26:00,
2013-07-13 16:31:00,75.9,67.0,30.01,South,176,1.0,10.0,74,0.00,,---,0.00,VWS V14.00,2013-07-13 20:31:00,
2013-07-13 16:36:00,75.9,67.8,30.01,South,176,2.0,10.0,76,0.00,,---,0.00,VWS V14.00,2013-07-13 20:36:00,
2013-07-13 16:41:00,75.9,67.4,30.01,South,176,0.0,1.0,75,0.00,,---,0.00,VWS V14.00,2013-07-13 20:41:00,
2013-07-13 16:46:00,75.7,68.0,30.01,South,180,0.0,2.0,77,0.00,,---,0.00,VWS V14.00,2013-07-13 20:46:00,
2013-07-13 16:51:00,75.7,67.2,30.01,South,178,0.0,2.0,75,0.00,,---,0.00,VWS V14.00,2013-07-13 20:51:00,
2013-07-13 16:56:00,76.0,68.7,30.01,South,178,0.0,2.0,78,0.00,,---,0.00,VWS V14.00,2013-07-13 20:56:00,
2013-07-13 17:01:00,76.4,68.7,30.01,South,178,0.0,2.0,77,0.00,,---,0.00,VWS V14.00,2013-07-13 21:01:00,
2013-07-13 17:06:00,76.9,68.0,30.00,South,171,2.0,2.0,74,0.00,,---,0.00,VWS V14.00,2013-07-13 21:06:00,
2013-07-13 17:11:00,77.5,67.4,30.00,NNW,342,0.0,5.0,71,0.00,,---,0.00,VWS V14.00,2013-07-13 21:11:00,
2013-07-13 17:16:00,77.9,66.9,30.00,NNW,344,0.0,5.0,69,0.00,,---,0.00,VWS V14.00,2013-07-13 21:16:00,
2013-07-13 17:21:00,78.3,67.7,30.00,NE,46,2.0,5.0,70,0.00,,---,0.00,VWS V14.00,2013-07-13 21:21:00,
2013-07-13 17:26:00,78.3,66.4,30.01,SSE,160,1.0,7.0,67,0.00,,---,0.00,VWS V14.00,2013-07-13 21:26:00,
2013-07-13 17:31:00,78.2,67.2,30.01,South,182,0.0,7.0,69,0.00,,---,0.00,VWS V14.00,2013-07-13 21:31:00,
2013-07-13 17:36:00,78.0,66.6,30.01,East,80,0.0,7.0,68,0.00,,---,0.00,VWS V14.00,2013-07-13 21:36:00,
2013-07-13 17:41:00,77.8,66.8,30.00,NNE,19,0.0,3.0,69,0.00,,---,0.00,VWS V14.00,2013-07-13 21:41:00,
2013-07-13 17:46:00,77.5,66.5,30.01,NE,53,0.0,3.0,69,0.00,,---,0.00,VWS V14.00,2013-07-13 21:46:00,
2013-07-13 17:51:00,77.2,66.7,30.01,NE,54,0.0,3.0,70,0.00,,---,0.00,VWS V14.00,2013-07-13 21:51:00,
2013-07-13 17:56:00,77.0,67.3,30.01,ENE,74,2.0,3.0,72,0.00,,---,0.00,VWS V14.00,2013-07-13 21:56:00,
2013-07-13 18:01:00,76.6,66.9,30.00,North,10,0.0,5.0,72,0.00,,---,0.00,VWS V14.00,2013-07-13 22:01:00,
2013-07-13 18:06:00,76.3,67.4,30.01,NW,322,0.0,5.0,74,0.00,,---,0.00,VWS V14.00,2013-07-13 22:06:00,
2013-07-13 18:11:00,76.0,67.1,30.01,NNW,341,0.0,1.0,74,0.00,,---,0.00,VWS V14.00,2013-07-13 22:11:00,
2013-07-13 18:16:00,75.7,66.0,30.01,East,88,2.0,3.0,72,0.00,,---,0.00,VWS V14.00,2013-07-13 22:16:00,
2013-07-13 18:21:00,75.5,66.6,30.01,ESE,122,0.0,3.0,74,0.00,,---,0.00,VWS V14.00,2013-07-13 22:21:00,
2013-07-13 18:26:00,75.4,66.9,30.02,WNW,299,1.0,3.0,75,0.00,,---,0.00,VWS V14.00,2013-07-13 22:26:00,
2013-07-13 18:31:00,75.1,67.4,30.02,NW,306,0.0,3.0,77,0.00,,---,0.00,VWS V14.00,2013-07-13 22:31:00,
2013-07-13 18:36:00,74.9,66.4,30.02,East,91,0.0,6.0,75,0.00,,---,0.00,VWS V14.00,2013-07-13 22:36:00,
2013-07-13 18:41:00,74.7,66.6,30.02,NW,314,0.0,3.0,76,0.00,,---,0.00,VWS V14.00,2013-07-13 22:41:00,
2013-07-13 18:46:00,74.5,66.4,30.02,WNW,286,1.0,4.0,76,0.00,,---,0.00,VWS V14.00,2013-07-13 22:46:00,
2013-07-13 18:51:00,74.2,65.8,30.02,WNW,285,0.0,4.0,75,0.00,,---,0.00,VWS V14.00,2013-07-13 22:51:00,
2013-07-13 18:56:00,74.1,66.1,30.02,ENE,61,3.0,4.0,76,0.00,,---,0.00,VWS V14.00,2013-07-13 22:56:00,
2013-07-13 19:01:00,73.9,65.1,30.02,SSE,167,0.0,4.0,74,0.00,,---,0.00,VWS V14.00,2013-07-13 23:01:00,
2013-07-13 19:06:00,73.7,65.7,30.02,NW,325,0.0,4.0,76,0.00,,---,0.00,VWS V14.00,2013-07-13 23:06:00,
2013-07-13 19:11:00,73.5,65.5,30.02,NW,325,0.0,6.0,76,0.00,,---,0.00,VWS V14.00,2013-07-13 23:11:00,
2013-07-13 19:16:00,73.4,65.0,30.02,East,99,0.0,6.0,75,0.00,,---,0.00,VWS V14.00,2013-07-13 23:16:00,
2013-07-13 19:21:00,73.4,65.4,30.03,SW,216,0.0,6.0,76,0.00,,---,0.00,VWS V14.00,2013-07-13 23:21:00,
2013-07-13 19:26:00,73.4,66.1,30.04,SW,217,0.0,6.0,78,0.00,,---,0.00,VWS V14.00,2013-07-13 23:26:00,
2013-07-13 19:31:00,73.3,65.7,30.04,SW,228,0.0,6.0,77,0.00,,---,0.00,VWS V14.00,2013-07-13 23:31:00,
2013-07-13 19:36:00,73.2,65.6,30.04,NW,325,0.0,6.0,77,0.00,,---,0.00,VWS V14.00,2013-07-13 23:36:00,
2013-07-13 19:41:00,73.1,65.5,30.04,East,89,0.0,2.0,77,0.00,,---,0.00,VWS V14.00,2013-07-13 23:41:00,
2013-07-13 19:46:00,73.0,65.4,30.04,NNE,26,0.0,3.0,77,0.00,,---,0.00,VWS V14.00,2013-07-13 23:46:00,
2013-07-13 19:51:00,72.9,65.3,30.04,NNE,29,0.0,3.0,77,0.00,,---,0.00,VWS V14.00,2013-07-13 23:51:00,
2013-07-13 19:56:00,72.8,65.6,30.04,NNE,29,2.0,3.0,78,0.00,,---,0.00,VWS V14.00,2013-07-13 23:56:00,
2013-07-13 20:01:00,72.7,64.7,30.04,NNE,13,0.0,3.0,76,0.00,,---,0.00,VWS V14.00,2013-07-14 00:01:00,
2013-07-13 20:06:00,72.6,65.0,30.04,WNW,299,2.0,3.0,77,0.00,,---,0.00,VWS V14.00,2013-07-14 00:06:00,
2013-07-13 20:11:00,72.4,64.8,30.03,West,260,0.0,4.0,77,0.00,,---,0.00,VWS V14.00,2013-07-14 00:11:00,
2013-07-13 20:16:00,72.3,64.7,30.03,East,81,0.0,5.0,77,0.00,,---,0.00,VWS V14.00,2013-07-14 00:16:00,
2013-07-13 20:21:00,72.1,64.5,30.04,NNW,347,0.0,5.0,77,0.00,,---,0.00,VWS V14.00,2013-07-14 00:21:00,
2013-07-13 20:26:00,72.0,64.4,30.04,SSW,201,0.0,5.0,77,0.00,,---,0.00,VWS V14.00,2013-07-14 00:26:00,
2013-07-13 20:31:00,71.9,64.3,30.04,NW,322,0.0,5.0,77,0.00,,---,0.00,VWS V14.00,2013-07-14 00:31:00,
2013-07-13 20:36:00,71.8,64.6,30.03,NW,319,0.0,5.0,78,0.00,,---,0.00,VWS V14.00,2013-07-14 00:36:00,
2013-07-13 20:41:00,71.7,64.5,30.03,North,5,0.0,1.0,78,0.00,,---,0.00,VWS V14.00,2013-07-14 00:41:00,
2013-07-13 20:46:00,71.5,64.3,30.04,North,5,0.0,1.0,78,0.00,,---,0.00,VWS V14.00,2013-07-14 00:46:00,
2013-07-13 20:51:00,71.4,64.6,30.04,West,276,1.0,3.0,79,0.00,,---,0.00,VWS V14.00,2013-07-14 00:51:00,
2013-07-13 20:56:00,71.3,64.5,30.04,WNW,297,3.0,5.0,79,0.00,,---,0.00,VWS V14.00,2013-07-14 00:56:00,
2013-07-13 21:01:00,71.2,64.0,30.04,ENE,64,4.0,5.0,78,0.00,,---,0.00,VWS V14.00,2013-07-14 01:01:00,
2013-07-13 21:06:00,71.1,64.3,30.04,SSW,213,0.0,5.0,79,0.00,,---,0.00,VWS V14.00,2013-07-14 01:06:00,
2013-07-13 21:11:00,71.1,63.9,30.03,NW,323,3.0,3.0,78,0.00,,---,0.00,VWS V14.00,2013-07-14 01:11:00,
2013-07-13 21:16:00,71.1,63.9,30.04,East,96,0.0,5.0,78,0.00,,---,0.00,VWS V14.00,2013-07-14 01:16:00,
2013-07-13 21:21:00,71.1,64.3,30.04,ESE,120,0.0,5.0,79,0.00,,---,0.00,VWS V14.00,2013-07-14 01:21:00,
2013-07-13 21:26:00,71.0,64.2,30.04,WNW,289,0.0,5.0,79,0.00,,---,0.00,VWS V14.00,2013-07-14 01:26:00,
2013-07-13 21:31:00,70.9,64.8,30.04,WNW,289,1.0,5.0,81,0.00,,---,0.00,VWS V14.00,2013-07-14 01:31:00,
2013-07-13 21:36:00,70.8,64.3,30.04,West,272,2.0,5.0,80,0.00,,---,0.00,VWS V14.00,2013-07-14 01:36:00,
2013-07-13 21:41:00,70.6,64.1,30.05,North,360,3.0,4.0,80,0.00,,---,0.00,VWS V14.00,2013-07-14 01:41:00,
2013-07-13 21:46:00,70.6,63.8,30.05,West,277,0.0,5.0,79,0.00,,---,0.00,VWS V14.00,2013-07-14 01:46:00,
2013-07-13 21:51:00,70.6,63.8,30.05,SSW,211,0.0,5.0,79,0.00,,---,0.00,VWS V14.00,2013-07-14 01:51:00,
2013-07-13 21:56:00,70.6,63.8,30.05,NW,311,0.0,6.0,79,0.00,,---,0.00,VWS V14.00,2013-07-14 01:56:00,
2013-07-13 22:01:00,70.7,63.9,30.06,WNW,293,0.0,6.0,79,0.00,,---,0.00,VWS V14.00,2013-07-14 02:01:00,
2013-07-13 22:06:00,70.7,63.9,30.06,West,276,0.0,6.0,79,0.00,,---,0.00,VWS V14.00,2013-07-14 02:06:00,
2013-07-13 22:11:00,70.7,63.9,30.05,SW,234,0.0,4.0,79,0.00,,---,0.00,VWS V14.00,2013-07-14 02:11:00,
2013-07-13 22:16:00,70.8,64.3,30.05,SW,234,0.0,4.0,80,0.00,,---,0.00,VWS V14.00,2013-07-14 02:16:00,
2013-07-13 22:21:00,70.7,64.2,30.05,West,268,0.0,4.0,80,0.00,,---,0.00,VWS V14.00,2013-07-14 02:21:00,
2013-07-13 22:26:00,70.6,64.1,30.06,ENE,70,1.0,7.0,80,0.00,,---,0.00,VWS V14.00,2013-07-14 02:26:00,
2013-07-13 22:31:00,70.6,64.1,30.05,North,5,0.0,7.0,80,0.00,,---,0.00,VWS V14.00,2013-07-14 02:31:00,
2013-07-13 22:36:00,70.6,64.1,30.05,SSW,193,0.0,7.0,80,0.00,,---,0.00,VWS V14.00,2013-07-14 02:36:00,
2013-07-13 22:41:00,70.6,64.1,30.05,NW,308,2.0,7.0,80,0.00,,---,0.00,VWS V14.00,2013-07-14 02:41:00,
2013-07-13 22:46:00,70.5,64.0,30.05,NNW,340,0.0,7.0,80,0.00,,---,0.00,VWS V14.00,2013-07-14 02:46:00,
2013-07-13 22:51:00,70.6,64.5,30.05,NNW,337,0.0,7.0,81,0.00,,---,0.00,VWS V14.00,2013-07-14 02:51:00,
2013-07-13 22:56:00,70.5,64.0,30.05,NW,308,0.0,7.0,80,0.00,,---,0.00,VWS V14.00,2013-07-14 02:56:00,
2013-07-13 23:01:00,70.4,64.3,30.05,WNW,292,3.0,7.0,81,0.00,,---,0.00,VWS V14.00,2013-07-14 03:01:00,
2013-07-13 23:06:00,70.3,64.2,30.05,NNW,341,2.0,7.0,81,0.00,,---,0.00,VWS V14.00,2013-07-14 03:06:00,
2013-07-13 23:11:00,70.3,64.6,30.05,WNW,290,0.0,4.0,82,0.00,,---,0.00,VWS V14.00,2013-07-14 03:11:00,
2013-07-13 23:16:00,70.2,64.1,30.06,West,277,3.0,6.0,81,0.00,,---,0.00,VWS V14.00,2013-07-14 03:16:00,
2013-07-13 23:21:00,70.1,64.0,30.05,NNW,342,2.0,6.0,81,0.00,,---,0.00,VWS V14.00,2013-07-14 03:21:00,
2013-07-13 23:26:00,70.1,64.0,30.06,NE,48,0.0,6.0,81,0.00,,---,0.00,VWS V14.00,2013-07-14 03:26:00,
2013-07-13 23:31:00,70.0,64.3,30.06,WNW,303,1.0,6.0,82,0.00,,---,0.00,VWS V14.00,2013-07-14 03:31:00,
2013-07-13 23:36:00,70.0,63.9,30.05,West,277,0.0,6.0,81,0.00,,---,0.00,VWS V14.00,2013-07-14 03:36:00,
2013-07-13 23:41:00,70.0,64.3,30.06,West,276,1.0,1.0,82,0.00,,---,0.00,VWS V14.00,2013-07-14 03:41:00,
2013-07-13 23:46:00,70.0,64.3,30.06,WSW,257,0.0,3.0,82,0.00,,---,0.00,VWS V14.00,2013-07-14 03:46:00,
2013-07-13 23:51:00,69.9,64.2,30.06,WSW,257,0.0,3.0,82,0.00,,---,0.00,VWS V14.00,2013-07-14 03:51:00,
2013-07-13 23:56:00,69.9,64.2,30.05,WSW,257,0.0,3.0,82,0.00,,---,0.00,VWS V14.00,2013-07-14 03:56:00,